TimeBST,TemperatureF,Dew PointF,Humidity,Sea Level PressureIn,VisibilityMPH,Wind Direction,Wind SpeedMPH,Gust SpeedMPH,PrecipitationIn,Events,Conditions,WindDirDegrees,DateUTC
12:20 AM,51.8,48.2,88,29.50,-9999.0,North,3.5,-,N/A,,Clear,10,2012-09-26 23:20:00
12:50 AM,51,49,92,29.52,12,North,3.5,,,,Mostly Cloudy,10,2012-09-26 23:50:00
12:50 AM,51.8,50.0,94,29.50,-9999.0,North,4.6,-,N/A,,Clear,360,2012-09-26 23:50:00
1:20 AM,51.8,50.0,94,29.53,6.2,North,4.6,-,N/A,,Unknown,360,2012-09-27 00:20:00
1:50 AM,51.8,50.0,94,29.53,6.2,Variable,3.5,-,N/A,,Scattered Clouds,0,2012-09-27 00:50:00
2:20 AM,51.8,50.0,94,29.53,6.2,North,4.6,-,N/A,,Partly Cloudy,10,2012-09-27 01:20:00
2:50 AM,53.6,50.0,88,29.56,6.2,North,4.6,-,N/A,,Scattered Clouds,10,2012-09-27 01:50:00
3:20 AM,53.6,50.0,88,29.56,6.2,NNE,4.6,-,N/A,,Scattered Clouds,20,2012-09-27 02:20:00
3:50 AM,53,50,86,29.57,13,North,4.6,,,,Scattered Clouds,10,2012-09-27 02:50:00
3:50 AM,53.6,50.0,88,29.56,6.2,North,4.6,-,N/A,,Scattered Clouds,10,2012-09-27 02:50:00
4:20 AM,53.6,50.0,88,29.56,6.2,North,4.6,-,N/A,,Mostly Cloudy,360,2012-09-27 03:20:00
4:50 AM,53.6,50.0,88,29.59,6.2,North,5.8,-,N/A,,Mostly Cloudy,360,2012-09-27 03:50:00
5:20 AM,51.8,50.0,94,29.59,6.2,North,5.8,-,N/A,,Mostly Cloudy,350,2012-09-27 04:20:00
5:50 AM,51.8,50.0,94,29.62,5.0,North,4.6,-,N/A,Rain,Light Rain,350,2012-09-27 04:50:00
6:20 AM,51.8,50.0,94,29.62,5.6,Variable,3.5,-,N/A,Rain,Light Rain,0,2012-09-27 05:20:00
6:50 AM,53,51,90,29.64,7,NNW,5.8,,,Rain,Rain,340,2012-09-27 05:50:00
6:50 AM,53.6,50.0,88,29.62,6.2,NNW,5.8,-,N/A,,Mostly Cloudy,340,2012-09-27 05:50:00
7:20 AM,53.6,50.0,88,29.65,6.2,North,8.1,-,N/A,,Mostly Cloudy,360,2012-09-27 06:20:00
7:50 AM,53.6,50.0,88,29.65,6.2,North,5.8,-,N/A,,Mostly Cloudy,350,2012-09-27 06:50:00
8:20 AM,53.6,50.0,88,29.68,6.2,NNW,5.8,-,N/A,,Mostly Cloudy,330,2012-09-27 07:20:00
8:50 AM,53.6,50.0,88,29.68,6.2,North,6.9,-,N/A,,Mostly Cloudy,350,2012-09-27 07:50:00
9:20 AM,53.6,50.0,88,29.71,6.2,NNW,6.9,-,N/A,,Mostly Cloudy,330,2012-09-27 08:20:00
9:50 AM,54,49,77,29.73,11,NNW,8.1,,,,Mostly Cloudy,330,2012-09-27 08:50:00
9:50 AM,53.6,48.2,82,29.71,6.2,NNW,6.9,-,N/A,,Mostly Cloudy,330,2012-09-27 08:50:00
10:20 AM,55.4,48.2,77,29.74,6.2,NNW,5.8,-,N/A,,Mostly Cloudy,340,2012-09-27 09:20:00
10:50 AM,57.2,48.2,72,29.74,6.2,NNW,8.1,-,N/A,,Scattered Clouds,330,2012-09-27 09:50:00
11:20 AM,59.0,48.2,67,29.74,6.2,NW,8.1,-,N/A,,Scattered Clouds,320,2012-09-27 10:20:00
11:50 AM,59.0,48.2,67,29.74,6.2,North,6.9,-,N/A,,Scattered Clouds,350,2012-09-27 10:50:00
12:20 PM,59.0,46.4,63,29.77,6.2,NW,10.4,-,N/A,,Mostly Cloudy,310,2012-09-27 11:20:00
12:50 PM,59,46,52,29.78,17,WNW,8.1,,,,Mostly Cloudy,300,2012-09-27 11:50:00
12:50 PM,60.8,46.4,59,29.77,6.2,WNW,9.2,-,N/A,,Mostly Cloudy,300,2012-09-27 11:50:00
1:20 PM,60.8,46.4,59,29.77,6.2,WNW,9.2,-,N/A,,Mostly Cloudy,300,2012-09-27 12:20:00
1:50 PM,62.6,46.4,55,29.80,6.2,WNW,9.2,-,N/A,,Mostly Cloudy,300,2012-09-27 12:50:00
2:20 PM,62.6,46.4,55,29.80,6.2,WNW,9.2,-,N/A,,Scattered Clouds,290,2012-09-27 13:20:00
2:50 PM,62.6,46.4,55,29.80,6.2,West,10.4,-,N/A,,Scattered Clouds,280,2012-09-27 13:50:00
3:20 PM,62.6,44.6,52,29.80,6.2,West,11.5,-,N/A,,Scattered Clouds,270,2012-09-27 14:20:00
3:50 PM,62,45,43,29.82,19,West,9.2,,,,Scattered Clouds,260,2012-09-27 14:50:00
3:50 PM,62.6,46.4,55,29.80,6.2,West,11.5,-,N/A,,Partly Cloudy,270,2012-09-27 14:50:00
4:20 PM,60.8,44.6,55,29.83,6.2,West,5.8,-,N/A,,Partly Cloudy,280,2012-09-27 15:20:00
4:50 PM,60.8,44.6,55,29.83,6.2,West,10.4,-,N/A,,Scattered Clouds,280,2012-09-27 15:50:00
5:20 PM,60.8,46.4,59,29.83,6.2,West,12.7,-,N/A,,Partly Cloudy,270,2012-09-27 16:20:00
5:50 PM,59.0,46.4,63,29.83,6.2,WNW,9.2,-,N/A,Rain,Light Rain Showers,290,2012-09-27 16:50:00
6:20 PM,57.2,50.0,77,29.86,6.2,West,11.5,-,N/A,Rain,Light Rain Showers,280,2012-09-27 17:20:00
6:50 PM,56,51,79,29.86,11,NNW,3.5,,,Rain,Rain,340,2012-09-27 17:50:00
6:50 PM,55.4,50.0,82,29.86,6.2,North,3.5,-,N/A,,Partly Cloudy,10,2012-09-27 17:50:00
7:20 PM,55.4,50.0,82,29.86,6.2,West,8.1,-,N/A,,Partly Cloudy,270,2012-09-27 18:20:00
7:50 PM,55.4,48.2,77,29.89,6.2,West,8.1,-,N/A,,Partly Cloudy,260,2012-09-27 18:50:00
8:20 PM,55.4,48.2,77,29.89,-9999.0,WSW,8.1,-,N/A,,Clear,250,2012-09-27 19:20:00
8:50 PM,53.6,48.2,82,29.89,-9999.0,WSW,10.4,-,N/A,,Clear,250,2012-09-27 19:50:00
9:20 PM,53.6,48.2,82,29.89,-9999.0,WSW,10.4,-,N/A,,Clear,250,2012-09-27 20:20:00
9:50 PM,53,48,78,29.91,16,WSW,11.5,,,,,250,2012-09-27 20:50:00
9:50 PM,53.6,48.2,82,29.92,-9999.0,WSW,11.5,-,N/A,,Clear,250,2012-09-27 20:50:00
10:20 PM,51.8,46.4,82,29.92,-9999.0,WSW,9.2,-,N/A,,Clear,250,2012-09-27 21:20:00
10:50 PM,51.8,46.4,82,29.92,-9999.0,WSW,9.2,-,N/A,,Clear,250,2012-09-27 21:50:00
11:20 PM,51.8,46.4,82,29.92,-9999.0,WSW,8.1,-,N/A,,Clear,250,2012-09-27 22:20:00
11:50 PM,51.8,46.4,82,29.92,-9999.0,WSW,6.9,-,N/A,,Clear,240,2012-09-27 22:50:00